Location: Esp�n
(42.4593°N, 0.2047°W)
Time: 12:57:09
(UTC+00:00)

Cosmos 2297 Rocket - Pass Details

Date: 07 June 2020
Orbit: 840 x 842 km, 71.0° (Epoch: 11 July)

Event Time Altitude Azimuth Distance (km) Brightness Sun altitude
Rises 01:08:21 0° 320° (NW) 3,403 5.8 -22.9°
Reaches altitude 10° 01:11:27 10° 304° (NW) 2,463 4.8 -22.7°
Enters shadow 01:15:02 19° 264° (W) 1,891 3.8 -22.5°
